Year,Month,Day,Hour,Minute,Value (Times are PST for windgust in km/hr)
2018,09,23,00,00,9.60
2018,09,23,00,01,4.80
2018,09,23,00,02,4.80
2018,09,23,00,03,9.60
2018,09,23,00,04,12.90
2018,09,23,00,05,14.50
2018,09,23,00,06,14.50
2018,09,23,00,07,8.10
2018,09,23,00,08,12.90
2018,09,23,00,09,11.30
2018,09,23,00,10,9.60
2018,09,23,00,11,9.60
2018,09,23,00,12,12.90
2018,09,23,00,13,9.60
2018,09,23,00,14,14.50
2018,09,23,00,15,12.90
2018,09,23,00,16,12.90
2018,09,23,00,17,11.30
2018,09,23,00,18,14.50
2018,09,23,00,19,12.90
2018,09,23,00,20,11.30
2018,09,23,00,21,8.10
2018,09,23,00,22,14.50
2018,09,23,00,23,14.50
2018,09,23,00,24,12.90
2018,09,23,00,25,12.90
2018,09,23,00,26,9.60
2018,09,23,00,27,12.90
2018,09,23,00,28,11.30
2018,09,23,00,29,14.50
2018,09,23,00,30,11.30
2018,09,23,00,31,12.90
2018,09,23,00,32,14.50
2018,09,23,00,33,14.50
2018,09,23,00,34,9.60
2018,09,23,00,35,9.60
2018,09,23,00,36,9.60
2018,09,23,00,37,11.30
2018,09,23,00,38,12.90
2018,09,23,00,39,11.30
2018,09,23,00,40,9.60
2018,09,23,00,41,9.60
2018,09,23,00,42,12.90
2018,09,23,00,43,9.60
2018,09,23,00,44,12.90
2018,09,23,00,45,14.50
2018,09,23,00,46,12.90
2018,09,23,00,47,12.90
2018,09,23,00,48,14.50
2018,09,23,00,49,11.30
2018,09,23,00,50,9.60
2018,09,23,00,51,11.30
2018,09,23,00,52,16.10
2018,09,23,00,53,19.30
2018,09,23,00,54,14.50
2018,09,23,00,55,14.50
2018,09,23,00,56,9.60
2018,09,23,00,57,9.60
2018,09,23,00,58,12.90
2018,09,23,00,59,11.30
2018,09,23,01,00,11.30
2018,09,23,01,01,11.30
2018,09,23,01,02,11.30
2018,09,23,01,03,11.30
2018,09,23,01,04,14.50
2018,09,23,01,05,11.30
2018,09,23,01,06,14.50
2018,09,23,01,07,14.50
2018,09,23,01,08,14.50
2018,09,23,01,09,11.30
2018,09,23,01,10,12.90
2018,09,23,01,11,16.10
2018,09,23,01,12,12.90
2018,09,23,01,13,9.60
2018,09,23,01,14,9.60
2018,09,23,01,15,9.60
2018,09,23,01,16,14.50
2018,09,23,01,17,12.90
2018,09,23,01,18,12.90
2018,09,23,01,19,11.30
2018,09,23,01,20,12.90
2018,09,23,01,21,11.30
2018,09,23,01,22,11.30
2018,09,23,01,23,11.30
2018,09,23,01,24,12.90
2018,09,23,01,25,11.30
2018,09,23,01,26,8.10
2018,09,23,01,27,9.60
2018,09,23,01,28,11.30
2018,09,23,01,29,11.30
2018,09,23,01,30,14.50
2018,09,23,01,31,14.50
2018,09,23,01,32,9.60
2018,09,23,01,33,9.60
2018,09,23,01,34,11.30
2018,09,23,01,35,11.30
2018,09,23,01,36,11.30
2018,09,23,01,37,9.60
2018,09,23,01,38,8.10
2018,09,23,01,39,8.10
2018,09,23,01,40,11.30
2018,09,23,01,41,11.30
2018,09,23,01,42,14.50
2018,09,23,01,43,8.10
2018,09,23,01,44,17.70
2018,09,23,01,45,8.10
2018,09,23,01,46,11.30
2018,09,23,01,47,9.60
2018,09,23,01,48,12.90
2018,09,23,01,49,9.60
2018,09,23,01,50,9.60
2018,09,23,01,51,11.30
2018,09,23,01,52,6.40
2018,09,23,01,53,12.90
2018,09,23,01,54,12.90
2018,09,23,01,55,11.30
2018,09,23,01,56,9.60
2018,09,23,01,57,9.60
2018,09,23,01,58,9.60
2018,09,23,01,59,14.50
2018,09,23,02,00,12.90
2018,09,23,02,01,9.60
2018,09,23,02,02,12.90
2018,09,23,02,03,9.60
2018,09,23,02,04,9.60
2018,09,23,02,05,8.10
2018,09,23,02,06,11.30
2018,09,23,02,07,8.10
2018,09,23,02,08,4.80
2018,09,23,02,09,4.80
2018,09,23,02,10,12.90
2018,09,23,02,11,9.60
2018,09,23,02,12,11.30
2018,09,23,02,13,9.60
2018,09,23,02,14,11.30
2018,09,23,02,15,9.60
2018,09,23,02,16,11.30
2018,09,23,02,17,9.60
2018,09,23,02,18,11.30
2018,09,23,02,19,6.40
2018,09,23,02,20,9.60
2018,09,23,02,21,11.30
2018,09,23,02,22,16.10
2018,09,23,02,23,8.10
2018,09,23,02,24,9.60
2018,09,23,02,25,9.60
2018,09,23,02,26,11.30
2018,09,23,02,27,9.60
2018,09,23,02,28,8.10
2018,09,23,02,29,12.90
2018,09,23,02,30,8.10
2018,09,23,02,31,9.60
2018,09,23,02,32,11.30
2018,09,23,02,33,11.30
2018,09,23,02,34,14.50
2018,09,23,02,35,11.30
2018,09,23,02,36,17.70
2018,09,23,02,37,9.60
2018,09,23,02,38,8.10
2018,09,23,02,39,8.10
2018,09,23,02,40,8.10
2018,09,23,02,41,9.60
2018,09,23,02,42,9.60
2018,09,23,02,43,14.50
2018,09,23,02,44,11.30
2018,09,23,02,45,11.30
2018,09,23,02,46,12.90
2018,09,23,02,47,12.90
2018,09,23,02,48,9.60
2018,09,23,02,49,12.90
2018,09,23,02,50,11.30
2018,09,23,02,51,9.60
2018,09,23,02,52,12.90
2018,09,23,02,53,9.60
2018,09,23,02,54,8.10
2018,09,23,02,55,11.30
2018,09,23,02,56,9.60
2018,09,23,02,57,11.30
2018,09,23,02,58,12.90
2018,09,23,02,59,12.90
2018,09,23,03,00,9.60
2018,09,23,03,01,8.10
2018,09,23,03,02,8.10
2018,09,23,03,03,8.10
2018,09,23,03,04,6.40
2018,09,23,03,05,11.30
2018,09,23,03,06,9.60
2018,09,23,03,07,9.60
2018,09,23,03,08,11.30
2018,09,23,03,09,11.30
2018,09,23,03,10,11.30
2018,09,23,03,11,11.30
2018,09,23,03,12,9.60
2018,09,23,03,13,8.10
2018,09,23,03,14,9.60
2018,09,23,03,15,11.30
2018,09,23,03,16,8.10
2018,09,23,03,17,9.60
2018,09,23,03,18,14.50
2018,09,23,03,19,11.30
2018,09,23,03,20,11.30
2018,09,23,03,21,9.60
2018,09,23,03,22,11.30
2018,09,23,03,23,9.60
2018,09,23,03,24,11.30
2018,09,23,03,25,9.60
2018,09,23,03,26,9.60
2018,09,23,03,27,8.10
2018,09,23,03,28,11.30
2018,09,23,03,29,11.30
2018,09,23,03,30,11.30
2018,09,23,03,31,11.30
2018,09,23,03,32,11.30
2018,09,23,03,33,11.30
2018,09,23,03,34,9.60
2018,09,23,03,35,9.60
2018,09,23,03,36,9.60
2018,09,23,03,37,6.40
2018,09,23,03,38,6.40
2018,09,23,03,39,6.40
2018,09,23,03,40,6.40
2018,09,23,03,41,11.30
2018,09,23,03,42,8.10
2018,09,23,03,43,8.10
2018,09,23,03,44,8.10
2018,09,23,03,45,11.30
2018,09,23,03,46,9.60
2018,09,23,03,47,9.60
2018,09,23,03,48,9.60
2018,09,23,03,49,8.10
2018,09,23,03,50,6.40
2018,09,23,03,51,9.60
2018,09,23,03,52,8.10
2018,09,23,03,53,4.80
2018,09,23,03,54,6.40
2018,09,23,03,55,8.10
2018,09,23,03,56,9.60
2018,09,23,03,57,8.10
2018,09,23,03,58,8.10
2018,09,23,03,59,4.80
2018,09,23,04,00,9.60
2018,09,23,04,01,6.40
2018,09,23,04,02,8.10
2018,09,23,04,03,8.10
2018,09,23,04,04,4.80
2018,09,23,04,05,4.80
2018,09,23,04,06,4.80
2018,09,23,04,07,8.10
2018,09,23,04,08,9.60
2018,09,23,04,09,6.40
2018,09,23,04,10,3.20
2018,09,23,04,11,8.10
2018,09,23,04,12,6.40
2018,09,23,04,13,4.80
2018,09,23,04,14,6.40
2018,09,23,04,15,4.80
2018,09,23,04,16,1.60
2018,09,23,04,17,4.80
2018,09,23,04,18,4.80
2018,09,23,04,19,4.80
2018,09,23,04,20,8.10
2018,09,23,04,21,3.20
2018,09,23,04,22,4.80
2018,09,23,04,23,11.30
2018,09,23,04,24,9.60
2018,09,23,04,25,8.10
2018,09,23,04,26,9.60
2018,09,23,04,27,4.80
2018,09,23,04,28,6.40
2018,09,23,04,29,9.60
2018,09,23,04,30,8.10
2018,09,23,04,31,3.20
2018,09,23,04,32,8.10
2018,09,23,04,33,9.60
2018,09,23,04,34,8.10
2018,09,23,04,35,8.10
2018,09,23,04,36,8.10
2018,09,23,04,37,3.20
2018,09,23,04,38,4.80
2018,09,23,04,39,4.80
2018,09,23,04,40,4.80
2018,09,23,04,41,6.40
2018,09,23,04,42,6.40
2018,09,23,04,43,4.80
2018,09,23,04,44,3.20
2018,09,23,04,45,6.40
2018,09,23,04,46,3.20
2018,09,23,04,47,3.20
2018,09,23,04,48,6.40
2018,09,23,04,49,6.40
2018,09,23,04,50,4.80
2018,09,23,04,51,1.60
2018,09,23,04,53,4.80
2018,09,23,04,54,4.80
2018,09,23,04,55,4.80
2018,09,23,04,56,4.80
2018,09,23,04,57,4.80
2018,09,23,04,58,6.40
2018,09,23,04,59,3.20
2018,09,23,05,00,3.20
2018,09,23,08,53,14.50
2018,09,23,08,54,16.10
2018,09,23,08,55,11.30
2018,09,23,08,56,9.60
2018,09,23,08,57,11.30
2018,09,23,08,58,16.10
2018,09,23,08,59,14.50
2018,09,23,09,00,8.10
2018,09,23,09,01,16.10
2018,09,23,09,02,16.10
2018,09,23,09,03,11.30
2018,09,23,09,04,12.90
2018,09,23,09,05,11.30
2018,09,23,09,06,14.50
2018,09,23,09,07,9.60
2018,09,23,09,08,9.60
2018,09,23,09,09,11.30
2018,09,23,09,10,12.90
2018,09,23,09,11,9.60
2018,09,23,09,12,11.30
2018,09,23,09,13,12.90
2018,09,23,09,14,12.90
2018,09,23,09,15,8.10
2018,09,23,09,16,9.60
2018,09,23,09,17,8.10
2018,09,23,09,18,9.60
2018,09,23,09,19,9.60
2018,09,23,09,20,14.50
2018,09,23,09,21,8.10
2018,09,23,09,22,4.80
2018,09,23,09,23,8.10
2018,09,23,09,24,9.60
2018,09,23,09,25,14.50
2018,09,23,09,26,9.60
2018,09,23,09,27,17.70
2018,09,23,09,28,9.60
2018,09,23,09,29,14.50
2018,09,23,09,30,9.60
2018,09,23,09,31,6.40
2018,09,23,09,32,12.90
2018,09,23,09,33,12.90
2018,09,23,09,34,9.60
2018,09,23,09,35,8.10
2018,09,23,09,36,9.60
2018,09,23,09,37,8.10
2018,09,23,09,38,9.60
2018,09,23,09,39,14.50
2018,09,23,09,40,11.30
2018,09,23,09,41,12.90
2018,09,23,09,42,12.90
2018,09,23,09,43,9.60
2018,09,23,09,44,9.60
2018,09,23,09,45,12.90
2018,09,23,09,46,11.30
2018,09,23,09,47,9.60
2018,09,23,09,48,11.30
2018,09,23,09,49,14.50
2018,09,23,09,50,14.50
2018,09,23,09,51,11.30
2018,09,23,09,52,11.30
2018,09,23,09,53,11.30
2018,09,23,09,54,9.60
2018,09,23,09,55,14.50
2018,09,23,09,56,16.10
2018,09,23,09,57,14.50
2018,09,23,09,58,17.70
2018,09,23,09,59,14.50
2018,09,23,10,00,14.50
2018,09,23,10,01,14.50
2018,09,23,10,02,16.10
2018,09,23,10,03,14.50
2018,09,23,10,04,16.10
2018,09,23,10,05,11.30
2018,09,23,10,06,11.30
2018,09,23,10,07,16.10
2018,09,23,10,08,17.70
2018,09,23,10,09,16.10
2018,09,23,10,10,12.90
2018,09,23,10,11,11.30
2018,09,23,10,12,16.10
2018,09,23,10,13,11.30
2018,09,23,10,14,11.30
2018,09,23,10,15,17.70
2018,09,23,10,16,14.50
2018,09,23,10,17,16.10
2018,09,23,10,18,14.50
2018,09,23,10,19,12.90
2018,09,23,10,20,17.70
2018,09,23,10,21,12.90
2018,09,23,10,22,14.50
2018,09,23,10,23,12.90
2018,09,23,10,24,11.30
2018,09,23,10,25,12.90
2018,09,23,10,26,11.30
2018,09,23,10,27,14.50
2018,09,23,10,28,16.10
2018,09,23,10,29,14.50
2018,09,23,10,30,14.50
2018,09,23,10,31,12.90
2018,09,23,10,32,12.90
2018,09,23,10,33,16.10
2018,09,23,10,34,12.90
2018,09,23,10,35,11.30
2018,09,23,10,36,16.10
2018,09,23,10,37,16.10
2018,09,23,10,38,12.90
2018,09,23,10,39,12.90
2018,09,23,10,40,11.30
2018,09,23,10,41,12.90
2018,09,23,10,42,12.90
2018,09,23,10,43,11.30
2018,09,23,10,44,11.30
2018,09,23,10,45,9.60
2018,09,23,10,46,11.30
2018,09,23,10,47,9.60
2018,09,23,10,48,6.40
2018,09,23,10,49,3.20
2018,09,23,10,50,6.40
2018,09,23,10,51,6.40
2018,09,23,10,52,6.40
2018,09,23,10,53,14.50
2018,09,23,10,54,19.30
2018,09,23,10,55,20.90
2018,09,23,10,56,19.30
2018,09,23,10,57,16.10
2018,09,23,10,58,16.10
2018,09,23,10,59,14.50
2018,09,23,11,00,4.80
2018,09,23,11,01,3.20
2018,09,23,11,02,4.80
2018,09,23,11,03,4.80
2018,09,23,11,04,22.50
2018,09,23,11,05,19.30
2018,09,23,11,06,19.30
2018,09,23,11,07,17.70
2018,09,23,11,08,16.10
2018,09,23,11,09,12.90
2018,09,23,11,10,8.10
2018,09,23,11,11,6.40
2018,09,23,11,12,3.20
2018,09,23,11,13,9.60
2018,09,23,11,14,16.10
2018,09,23,11,15,14.50
2018,09,23,11,16,14.50
2018,09,23,11,17,12.90
2018,09,23,11,18,12.90
2018,09,23,11,19,14.50
2018,09,23,11,20,16.10
2018,09,23,11,21,16.10
2018,09,23,11,22,14.50
2018,09,23,11,23,12.90
2018,09,23,11,24,14.50
2018,09,23,11,25,12.90
2018,09,23,11,26,16.10
2018,09,23,11,27,14.50
2018,09,23,11,28,14.50
2018,09,23,11,29,14.50
2018,09,23,11,30,16.10
2018,09,23,11,31,12.90
2018,09,23,11,32,16.10
2018,09,23,11,33,14.50
2018,09,23,11,34,14.50
2018,09,23,11,35,9.60
2018,09,23,11,36,12.90
2018,09,23,11,37,12.90
2018,09,23,11,38,9.60
2018,09,23,11,39,9.60
2018,09,23,11,40,9.60
2018,09,23,11,41,9.60
2018,09,23,11,42,9.60
2018,09,23,11,43,9.60
2018,09,23,11,44,12.90
2018,09,23,11,45,11.30
2018,09,23,11,46,9.60
2018,09,23,11,47,9.60
2018,09,23,11,48,8.10
2018,09,23,11,49,8.10
2018,09,23,11,50,11.30
2018,09,23,11,51,9.60
2018,09,23,11,52,11.30
2018,09,23,11,53,12.90
2018,09,23,11,54,9.60
2018,09,23,11,55,6.40
2018,09,23,11,56,8.10
2018,09,23,11,57,12.90
2018,09,23,11,58,11.30
2018,09,23,11,59,8.10
2018,09,23,12,00,6.40
2018,09,23,12,01,3.20
2018,09,23,12,02,1.60
2018,09,23,12,03,3.20
2018,09,23,12,04,3.20
2018,09,23,12,05,8.10
2018,09,23,12,06,8.10
2018,09,23,12,07,8.10
2018,09,23,12,08,6.40
2018,09,23,12,09,3.20
2018,09,23,12,10,4.80
2018,09,23,12,11,3.20
2018,09,23,12,12,1.60
2018,09,23,12,13,3.20
2018,09,23,12,14,1.60
2018,09,23,12,15,1.60
2018,09,23,12,16,1.60
2018,09,23,12,17,1.60
2018,09,23,12,18,1.60
2018,09,23,12,19,1.60
2018,09,23,12,20,1.60
2018,09,23,12,21,3.20
2018,09,23,12,22,6.40
2018,09,23,12,23,6.40
2018,09,23,12,24,1.60
2018,09,23,12,25,9.60
2018,09,23,12,26,11.30
2018,09,23,12,27,9.60
2018,09,23,12,28,8.10
2018,09,23,12,29,6.40
2018,09,23,12,30,6.40
2018,09,23,12,31,4.80
2018,09,23,12,32,4.80
2018,09,23,12,33,4.80
2018,09,23,12,34,3.20
2018,09,23,12,35,1.60
2018,09,23,12,36,1.60
2018,09,23,12,37,3.20
2018,09,23,12,38,4.80
2018,09,23,12,39,4.80
2018,09,23,12,40,3.20
2018,09,23,12,41,4.80
2018,09,23,12,42,6.40
2018,09,23,12,43,4.80
2018,09,23,12,44,3.20
2018,09,23,12,45,4.80
2018,09,23,12,46,3.20
2018,09,23,12,47,3.20
2018,09,23,12,48,6.40
2018,09,23,12,49,4.80
2018,09,23,12,50,4.80
2018,09,23,12,51,1.60
2018,09,23,12,52,3.20
2018,09,23,12,53,3.20
2018,09,23,12,54,4.80
2018,09,23,12,55,4.80
2018,09,23,12,56,6.40
2018,09,23,12,57,6.40
2018,09,23,12,58,11.30
2018,09,23,12,59,9.60
2018,09,23,13,00,6.40
2018,09,23,13,01,6.40
2018,09,23,13,02,6.40
2018,09,23,13,03,6.40
2018,09,23,13,04,8.10
2018,09,23,13,05,8.10
2018,09,23,13,06,6.40
2018,09,23,13,07,6.40
2018,09,23,13,08,6.40
2018,09,23,13,09,3.20
2018,09,23,13,10,8.10
2018,09,23,13,11,8.10
2018,09,23,13,12,6.40
2018,09,23,13,13,8.10
2018,09,23,13,14,4.80
2018,09,23,13,15,6.40
2018,09,23,13,16,6.40
2018,09,23,13,17,4.80
2018,09,23,13,18,6.40
2018,09,23,13,19,11.30
2018,09,23,13,20,11.30
2018,09,23,13,21,4.80
2018,09,23,13,22,6.40
2018,09,23,13,23,3.20
2018,09,23,13,24,1.60
2018,09,23,13,25,1.60
2018,09,23,13,26,3.20
2018,09,23,13,27,6.40
2018,09,23,13,28,12.90
2018,09,23,13,29,12.90
2018,09,23,13,30,6.40
2018,09,23,13,31,3.20
2018,09,23,13,32,3.20
2018,09,23,13,33,1.60
2018,09,23,13,34,4.80
2018,09,23,13,35,4.80
2018,09,23,13,36,3.20
2018,09,23,13,37,6.40
2018,09,23,13,38,3.20
2018,09,23,13,39,1.60
2018,09,23,13,40,4.80
2018,09,23,13,41,4.80
2018,09,23,13,42,1.60
2018,09,23,13,43,3.20
2018,09,23,13,44,1.60
2018,09,23,13,45,3.20
2018,09,23,13,46,3.20
2018,09,23,13,47,3.20
2018,09,23,13,48,3.20
2018,09,23,13,49,1.60
2018,09,23,13,50,8.10
2018,09,23,13,51,9.60
2018,09,23,13,52,6.40
2018,09,23,13,53,4.80
2018,09,23,13,54,4.80
2018,09,23,13,55,4.80
2018,09,23,13,56,9.60
2018,09,23,13,57,12.90
2018,09,23,13,58,11.30
2018,09,23,13,59,11.30
2018,09,23,14,00,6.40
2018,09,23,14,01,8.10
2018,09,23,14,02,14.50
2018,09,23,14,03,16.10
2018,09,23,14,04,8.10
2018,09,23,14,05,6.40
2018,09,23,14,06,12.90
2018,09,23,14,07,9.60
2018,09,23,14,08,3.20
2018,09,23,14,09,8.10
2018,09,23,14,10,9.60
2018,09,23,14,11,8.10
2018,09,23,14,12,1.60
2018,09,23,14,13,6.40
2018,09,23,14,14,3.20
2018,09,23,14,15,9.60
2018,09,23,14,16,3.20
2018,09,23,14,17,11.30
2018,09,23,14,18,12.90
2018,09,23,14,19,14.50
2018,09,23,14,20,14.50
2018,09,23,14,21,14.50
2018,09,23,14,22,14.50
2018,09,23,14,23,4.80
2018,09,23,14,24,11.30
2018,09,23,14,25,9.60
2018,09,23,14,26,12.90
2018,09,23,14,27,11.30
2018,09,23,14,28,12.90
2018,09,23,14,29,20.90
2018,09,23,14,30,19.30
2018,09,23,14,31,19.30
2018,09,23,14,32,20.90
2018,09,23,14,33,17.70
2018,09,23,14,34,16.10
2018,09,23,14,35,22.50
2018,09,23,14,36,17.70
2018,09,23,14,37,16.10
2018,09,23,14,38,17.70
2018,09,23,14,39,17.70
2018,09,23,14,40,19.30
2018,09,23,14,41,17.70
2018,09,23,14,42,19.30
2018,09,23,14,43,19.30
2018,09,23,14,44,16.10
2018,09,23,14,45,16.10
2018,09,23,14,46,17.70
2018,09,23,14,47,14.50
2018,09,23,14,48,14.50
2018,09,23,14,49,11.30
2018,09,23,14,50,12.90
2018,09,23,14,51,12.90
2018,09,23,14,52,16.10
2018,09,23,14,53,14.50
2018,09,23,14,54,14.50
2018,09,23,14,55,12.90
2018,09,23,14,56,14.50
2018,09,23,14,57,17.70
2018,09,23,14,58,17.70
2018,09,23,14,59,9.60
2018,09,23,15,00,12.90
2018,09,23,15,01,16.10
2018,09,23,15,02,11.30
2018,09,23,15,03,12.90
2018,09,23,15,04,11.30
2018,09,23,15,05,8.10
2018,09,23,15,06,11.30
2018,09,23,15,07,14.50
2018,09,23,15,08,17.70
2018,09,23,15,09,17.70
2018,09,23,15,10,16.10
2018,09,23,15,11,14.50
2018,09,23,15,12,14.50
2018,09,23,15,13,16.10
2018,09,23,15,14,14.50
2018,09,23,15,15,14.50
2018,09,23,15,16,16.10
2018,09,23,15,17,16.10
2018,09,23,15,18,16.10
2018,09,23,15,19,17.70
2018,09,23,15,20,17.70
2018,09,23,15,21,16.10
2018,09,23,15,22,12.90
2018,09,23,15,23,16.10
2018,09,23,15,24,12.90
2018,09,23,15,25,16.10
2018,09,23,15,26,17.70
2018,09,23,15,27,17.70
2018,09,23,15,28,17.70
2018,09,23,15,29,19.30
2018,09,23,15,30,16.10
2018,09,23,15,31,14.50
2018,09,23,15,32,9.60
2018,09,23,15,33,11.30
2018,09,23,15,34,17.70
2018,09,23,15,35,17.70
2018,09,23,15,36,17.70
2018,09,23,15,37,12.90
2018,09,23,15,38,9.60
2018,09,23,15,39,12.90
2018,09,23,15,40,17.70
2018,09,23,15,41,16.10
2018,09,23,15,42,16.10
2018,09,23,15,43,14.50
2018,09,23,15,44,19.30
2018,09,23,15,45,14.50
2018,09,23,15,46,11.30
2018,09,23,15,47,16.10
2018,09,23,15,48,11.30
2018,09,23,15,49,16.10
2018,09,23,15,50,14.50
2018,09,23,15,51,14.50
2018,09,23,15,52,14.50
2018,09,23,15,53,9.60
2018,09,23,15,54,16.10
2018,09,23,15,55,16.10
2018,09,23,15,56,14.50
2018,09,23,15,57,16.10
2018,09,23,15,58,14.50
2018,09,23,15,59,12.90
2018,09,23,16,00,12.90
2018,09,23,16,01,11.30
2018,09,23,16,02,12.90
2018,09,23,16,03,14.50
2018,09,23,16,04,8.10
2018,09,23,16,05,8.10
2018,09,23,16,06,12.90
2018,09,23,16,07,12.90
2018,09,23,16,08,14.50
2018,09,23,16,09,16.10
2018,09,23,16,10,9.60
2018,09,23,16,11,9.60
2018,09,23,16,12,11.30
2018,09,23,16,13,11.30
2018,09,23,16,14,11.30
2018,09,23,16,15,11.30
2018,09,23,16,16,12.90
2018,09,23,16,17,12.90
2018,09,23,16,18,8.10
2018,09,23,16,19,3.20
2018,09,23,16,20,11.30
2018,09,23,16,21,11.30
2018,09,23,16,22,9.60
2018,09,23,16,23,8.10
2018,09,23,16,24,8.10
2018,09,23,16,25,8.10
2018,09,23,16,26,8.10
2018,09,23,16,27,14.50
2018,09,23,16,28,12.90
2018,09,23,16,29,14.50
2018,09,23,16,30,11.30
2018,09,23,16,31,14.50
2018,09,23,16,32,14.50
2018,09,23,16,33,14.50
2018,09,23,16,34,11.30
2018,09,23,16,35,14.50
2018,09,23,16,36,14.50
2018,09,23,16,37,14.50
2018,09,23,16,38,14.50
2018,09,23,16,39,16.10
2018,09,23,16,40,14.50
2018,09,23,16,41,14.50
2018,09,23,16,42,16.10
2018,09,23,16,43,11.30
2018,09,23,16,44,9.60
2018,09,23,16,45,9.60
2018,09,23,16,46,8.10
2018,09,23,16,47,6.40
2018,09,23,16,48,3.20
2018,09,23,16,49,4.80
2018,09,23,16,50,9.60
2018,09,23,16,51,9.60
2018,09,23,16,52,8.10
2018,09,23,16,53,9.60
2018,09,23,16,54,12.90
2018,09,23,16,55,12.90
2018,09,23,16,56,9.60
2018,09,23,16,57,8.10
2018,09,23,16,58,8.10
2018,09,23,16,59,9.60
2018,09,23,17,00,11.30
2018,09,23,17,01,12.90
2018,09,23,17,02,12.90
2018,09,23,17,03,11.30
2018,09,23,17,04,14.50
2018,09,23,17,05,14.50
2018,09,23,17,06,16.10
2018,09,23,17,07,12.90
2018,09,23,17,08,12.90
2018,09,23,17,09,11.30
2018,09,23,17,10,11.30
2018,09,23,17,11,14.50
2018,09,23,17,12,11.30
2018,09,23,17,13,9.60
2018,09,23,17,14,11.30
2018,09,23,17,15,12.90
2018,09,23,17,16,11.30
2018,09,23,17,17,8.10
2018,09,23,17,18,12.90
2018,09,23,17,19,12.90
2018,09,23,17,20,11.30
2018,09,23,17,21,11.30
2018,09,23,17,22,11.30
2018,09,23,17,23,11.30
2018,09,23,17,24,11.30
2018,09,23,17,25,11.30
2018,09,23,17,26,11.30
2018,09,23,17,27,12.90
2018,09,23,17,28,11.30
2018,09,23,17,29,12.90
2018,09,23,17,30,12.90
2018,09,23,17,31,11.30
2018,09,23,17,32,11.30
2018,09,23,17,33,12.90
2018,09,23,17,34,14.50
2018,09,23,17,35,11.30
2018,09,23,17,36,11.30
2018,09,23,17,37,11.30
2018,09,23,17,38,11.30
2018,09,23,17,39,9.60
2018,09,23,17,40,11.30
2018,09,23,17,41,12.90
2018,09,23,17,42,12.90
2018,09,23,17,43,9.60
2018,09,23,17,44,12.90
2018,09,23,17,45,8.10
2018,09,23,17,46,11.30
2018,09,23,17,47,11.30
2018,09,23,17,48,11.30
2018,09,23,17,49,11.30
2018,09,23,17,50,9.60
2018,09,23,17,51,9.60
2018,09,23,17,52,11.30
2018,09,23,17,53,11.30
2018,09,23,17,54,9.60
2018,09,23,17,55,12.90
2018,09,23,17,56,11.30
2018,09,23,17,57,11.30
2018,09,23,17,58,9.60
2018,09,23,17,59,6.40
2018,09,23,18,00,6.40
2018,09,23,18,01,8.10
2018,09,23,18,02,8.10
2018,09,23,18,03,6.40
2018,09,23,18,04,8.10
2018,09,23,18,05,6.40
2018,09,23,18,06,4.80
2018,09,23,18,07,6.40
2018,09,23,18,08,6.40
2018,09,23,18,09,6.40
2018,09,23,18,10,6.40
2018,09,23,18,11,4.80
2018,09,23,18,12,9.60
2018,09,23,18,13,9.60
2018,09,23,18,14,8.10
2018,09,23,18,15,8.10
2018,09,23,18,16,6.40
2018,09,23,18,17,8.10
2018,09,23,18,18,8.10
2018,09,23,18,19,6.40
2018,09,23,18,20,4.80
2018,09,23,18,21,6.40
2018,09,23,18,22,8.10
2018,09,23,18,23,6.40
2018,09,23,18,24,4.80
2018,09,23,18,25,4.80
2018,09,23,18,26,4.80
2018,09,23,18,27,6.40
2018,09,23,18,28,4.80
2018,09,23,18,29,6.40
2018,09,23,18,30,6.40
2018,09,23,18,31,8.10
2018,09,23,18,32,6.40
2018,09,23,18,33,4.80
2018,09,23,18,34,4.80
2018,09,23,18,35,4.80
2018,09,23,18,36,4.80
2018,09,23,18,37,3.20
2018,09,23,18,38,4.80
2018,09,23,18,39,3.20
2018,09,23,18,40,3.20
2018,09,23,18,41,3.20
2018,09,23,18,42,1.60
2018,09,23,18,43,3.20
2018,09,23,18,44,3.20
2018,09,23,18,45,4.80
2018,09,23,18,46,4.80
2018,09,23,18,47,4.80
2018,09,23,18,48,4.80
2018,09,23,18,49,3.20
2018,09,23,18,50,3.20
2018,09,23,18,51,3.20
2018,09,23,18,52,4.80
2018,09,23,18,53,4.80
2018,09,23,18,54,1.60
2018,09,23,18,55,3.20
2018,09,23,18,56,1.60
2018,09,23,18,57,4.80
2018,09,23,18,58,4.80
2018,09,23,18,59,4.80
2018,09,23,19,00,4.80
2018,09,23,19,01,3.20
2018,09,23,19,02,4.80
2018,09,23,19,03,3.20
2018,09,23,19,04,4.80
2018,09,23,19,05,3.20
2018,09,23,19,06,1.60
2018,09,23,19,07,6.40
2018,09,23,19,08,6.40
2018,09,23,19,09,8.10
2018,09,23,19,10,8.10
2018,09,23,19,11,8.10
2018,09,23,19,12,6.40
2018,09,23,19,13,6.40
2018,09,23,19,14,8.10
2018,09,23,19,15,6.40
2018,09,23,19,16,8.10
2018,09,23,19,17,6.40
2018,09,23,19,18,9.60
2018,09,23,19,19,8.10
2018,09,23,19,20,6.40
2018,09,23,19,21,6.40
2018,09,23,19,22,6.40
2018,09,23,19,23,6.40
2018,09,23,19,24,4.80
2018,09,23,19,25,6.40
2018,09,23,19,26,4.80
2018,09,23,19,27,4.80
2018,09,23,19,28,3.20
2018,09,23,19,29,3.20
2018,09,23,19,30,3.20
2018,09,23,19,31,3.20
2018,09,23,19,32,1.60
2018,09,23,19,35,3.20
2018,09,23,19,36,1.60
2018,09,23,19,43,1.60
2018,09,23,19,45,1.60
2018,09,23,19,53,1.60
2018,09,23,20,06,1.60
2018,09,23,20,07,1.60
2018,09,23,20,09,1.60
2018,09,23,20,10,3.20
2018,09,23,20,11,4.80
2018,09,23,20,12,4.80
2018,09,23,20,13,3.20
2018,09,23,20,14,3.20
2018,09,23,20,15,3.20
2018,09,23,20,16,1.60
2018,09,23,20,17,1.60
2018,09,23,20,18,4.80
2018,09,23,20,19,3.20
2018,09,23,20,22,3.20
2018,09,23,20,23,3.20
2018,09,23,20,24,3.20
2018,09,23,20,25,1.60
2018,09,23,20,26,3.20
2018,09,23,20,27,1.60
2018,09,23,20,28,3.20
2018,09,23,20,29,3.20
2018,09,23,20,30,1.60
2018,09,23,20,31,1.60
2018,09,23,20,32,3.20
2018,09,23,20,33,4.80
2018,09,23,20,34,4.80
2018,09,23,20,35,4.80
2018,09,23,20,36,6.40
2018,09,23,20,37,4.80
2018,09,23,20,38,1.60
2018,09,23,20,39,4.80
2018,09,23,20,40,4.80
2018,09,23,20,41,4.80
2018,09,23,20,42,4.80
2018,09,23,20,43,4.80
2018,09,23,20,44,6.40
2018,09,23,20,45,6.40
2018,09,23,20,46,6.40
2018,09,23,20,47,8.10
2018,09,23,20,48,6.40
2018,09,23,20,49,8.10
2018,09,23,20,50,8.10
2018,09,23,20,51,8.10
2018,09,23,20,52,6.40
2018,09,23,20,53,9.60
2018,09,23,20,54,8.10
2018,09,23,20,55,6.40
2018,09,23,20,56,6.40
2018,09,23,20,57,6.40
2018,09,23,20,58,8.10
2018,09,23,20,59,8.10
2018,09,23,21,00,4.80
2018,09,23,21,01,8.10
2018,09,23,21,02,8.10
2018,09,23,21,03,9.60
2018,09,23,21,04,6.40
2018,09,23,21,05,8.10
2018,09,23,21,06,9.60
2018,09,23,21,07,9.60
2018,09,23,21,08,9.60
2018,09,23,21,09,8.10
2018,09,23,21,10,11.30
2018,09,23,21,11,9.60
2018,09,23,21,12,9.60
2018,09,23,21,13,8.10
2018,09,23,21,14,9.60
2018,09,23,21,15,8.10
2018,09,23,21,16,9.60
2018,09,23,21,17,8.10
2018,09,23,21,18,6.40
2018,09,23,21,19,9.60
2018,09,23,21,20,11.30
2018,09,23,21,21,8.10
2018,09,23,21,22,6.40
2018,09,23,21,23,8.10
2018,09,23,21,24,6.40
2018,09,23,21,25,9.60
2018,09,23,21,26,8.10
2018,09,23,21,27,8.10
2018,09,23,21,28,8.10
2018,09,23,21,29,8.10
2018,09,23,21,30,8.10
2018,09,23,21,31,8.10
2018,09,23,21,32,6.40
2018,09,23,21,33,6.40
2018,09,23,21,34,8.10
2018,09,23,21,35,8.10
2018,09,23,21,36,9.60
2018,09,23,21,37,11.30
2018,09,23,21,38,9.60
2018,09,23,21,39,9.60
2018,09,23,21,40,8.10
2018,09,23,21,41,9.60
2018,09,23,21,42,11.30
2018,09,23,21,43,11.30
2018,09,23,21,44,8.10
2018,09,23,21,45,9.60
2018,09,23,21,46,11.30
2018,09,23,21,47,11.30
2018,09,23,21,48,12.90
2018,09,23,21,49,11.30
2018,09,23,21,50,12.90
2018,09,23,21,51,12.90
2018,09,23,21,52,12.90
2018,09,23,21,53,11.30
2018,09,23,21,54,9.60
2018,09,23,21,55,9.60
2018,09,23,21,56,8.10
2018,09,23,21,57,6.40
2018,09,23,21,58,6.40
2018,09,23,21,59,6.40
2018,09,23,22,00,4.80
2018,09,23,22,01,3.20
2018,09,23,22,02,3.20
2018,09,23,22,03,6.40
2018,09,23,22,04,6.40
2018,09,23,22,05,4.80
2018,09,23,22,06,4.80
2018,09,23,22,07,4.80
2018,09,23,22,08,6.40
2018,09,23,22,09,4.80